Погода в Мартуни

Армения     40°08′12″N   45°18′01″E
темп.,
°C
ветер,
м/с
пор.,
м/с
влажн.,
%
обл.,
%
осадки,
мм/ч
давл.,
гПа
погр.,
м
1 марта, пн
пн101:00−1зюз335533 0.0 1017237
04:00−1юз335867 0.0 1018266
07:00−1ююз2362100 0.0 1019393
10:00−1сз2271100 0.2 1020525
13:00−2св339493 0.6 1020317
16:00−2ссв449597 2.4 1019321
19:00−2св5596100 3.8 1022353
22:00−4св4496100 8.2 1024343
2 марта, вт
вт201:00−4св4496100 3.4 1025331
04:00−4св4594100 5.5 1026356
07:00−5ссв4491100 0.8 1027333
10:00−4св3390100 1.3 1028337
13:00−3св3384100 0.4 1026342
16:00−2ссв229099 0.7 1024307
19:00−2сз118299 0.2 1025298
22:00−3зюз226799 0.3 1027270
3 марта, ср
ср301:00−3з226619 0.0 1026257
04:00−3зюз226611 0.0 1025301
07:00−2юз35670 0.0 1024514
10:000юз47656 0.1 1022916
13:00+1юз49564 0.0 10191307
16:00+1юз511572 0.0 10171497
19:000зюз37590 0.0 1018984
22:00−2зюз33650 0.0 1021483
4 марта, чт
чт401:00−2з22666 0.0 1022360
04:00−3з43706 0.0 1024231
07:00−3з32640 0.0 1026193
10:00−2ссв21620 0.0 1027426
13:00−2св217249 0.0 1025587
16:00−1всв227269 0.1 1023576
19:00−1св337990 0.1 1025506
22:00−3св348595 0.4 1026388
5 марта, пт
пт501:00−3с3384100 0.1 1025337
04:00−4ссз338999 0.4 1023302
07:00−5ссз4489100 0.2 1022328
10:00−4ссз1183100 0.3 1021321
13:00−2ссв1183100 0.0 1019204
16:00−1св128892 0.1 1017301
19:00−1зсз118489 0.1 1019337
22:00−1юз216880 0.1 1023231